Location: Centreville
(38.8333°N, 77.4295°W)
Time: 04:08:57
(UTC-04:00)

NUDT-PHONESAT - Visible Passes

Search period start: 14 October 2019 00:00
Search period end: 24 October 2019 00:00
Orbit: 487 x 506 km, 97.4° (Epoch: 13 October)

Date Brightness Start Highest point End Pass type
(mag) Time Alt. Az. Time Alt. Az. Time Alt. Az.
14 Oct ? 19:09:46 10° S 19:13:20 53° W 19:16:56 10° NNW visible
15 Oct ? 06:41:02 10° ENE 06:42:48 13° E 06:44:34 10° ESE visible
16 Oct ? 20:04:30 10° WSW 20:05:43 11° W 20:06:58 10° WNW visible
17 Oct ? 19:42:01 10° SW 19:44:49 21° W 19:47:37 10° NW visible
18 Oct ? 19:20:34 10° SSW 19:23:58 38° W 19:27:23 10° NNW visible
19 Oct ? 06:50:57 10° NE 06:53:28 18° E 06:55:59 10° SE visible
19 Oct ? 18:59:32 10° S 19:03:10 76° WSW 19:06:48 10° NNW visible
21 Oct ? 19:53:14 10° SW 19:55:26 15° W 19:57:39 10° NW visible
22 Oct ? 19:31:24 10° SSW 19:34:32 27° W 19:37:41 10° NW visible
23 Oct ? 19:10:09 10° S 19:13:41 53° W 19:17:15 10° NNW visible
